User: anonymous   Login
Location: Unspecified
(0.0000°N, 0.0000°E)
Time: 18:04:24
(UTC+00:00)
Language:

STARLINK-1338 - Orbit

View from above orbital plane
View from above orbital plane
View from above satellite
View from above satellite

Ground track
Ground track

The orbit is defined by the following mean orbital elements,

1 45532U          26145.19698793 +.00000000 +00000-0 +49065-3 0 00009
2 45532  53.0448  71.3090 0004509  64.5789 295.5692 15.66284671    06
Epoch (UTC): 25 May 2026 04:43:39
Eccentricity: 0.0004509
inclination: 53.0448°
perigee height: 367 km
apogee height: 373 km
right ascension of ascending node: 71.3090°
argument of perigee: 64.5789°
revolutions per day: 15.66284671
mean anomaly at epoch: 295.5692°

The dashed part of the orbit path shows where the satellite is in the earth's shadow,  

DLR